Wind_Speed
30 31 32 30 29 30 31 31 30 27 27 26 29 31 34 36 38 40 42 45 47 50 52 54 57 60 62 64 67 69 72 74 75 77 78 78 78 78 77 75 74 73 71 70
32 32 32 30 29 30 31 32 32 31 30 30 32 34 37 39 41 43 46 49 52 54 57 59 62 65 67 69 72 75 77 78 79 80 79 79 78 77 75 74 72 71 70 68
34 32 33 31 30 31 32 33 33 32 32 34 35 38 40 42 45 47 50 53 56 59 61 64 67 69 72 74 76 79 80 81 81 80 79 78 76 75 73 71 69 68 67 66
36 34 33 32 32 32 32 32 33 34 35 37 39 41 43 46 49 52 55 58 61 63 66 68 71 74 76 78 79 81 82 82 81 79 77 75 73 71 69 68 66 65 64 63
38 37 34 32 33 32 33 34 35 37 38 40 42 44 47 50 53 56 59 62 65 67 70 72 75 77 79 80 81 82 81 80 78 75 73 70 68 66 65 63 62 60 59 58
39 38 36 33 34 35 36 37 37 39 41 43 45 48 50 53 56 59 62 65 68 71 73 75 77 79 81 81 82 81 79 76 73 70 68 65 63 62 61 60 58 56 55 55
39 39 37 36 37 37 39 40 41 42 44 46 49 52 55 58 61 64 66 69 71 74 75 77 79 81 81 81 80 79 76 72 68 65 64 62 61 60 59 57 55 54 53 52
38 39 39 39 39 40 41 42 44 46 48 51 53 56 59 62 65 67 69 71 73 75 76 78 80 80 80 78 77 74 70 66 63 61 60 60 59 57 56 55 53 52 51 50
38 39 41 41 42 43 44 45 47 50 52 55 58 60 63 65 67 69 71 73 75 76 77 78 78 78 77 75 72 68 64 61 60 59 58 58 57 55 53 53 52 50 49 47
39 40 42 43 44 45 46 49 51 54 56 59 62 64 66 68 69 71 73 74 76 77 77 76 75 74 72 70 67 63 61 59 58 57 56 54 53 52 51 50 49 47 46 45
41 42 43 44 46 47 50 52 54 57 60 63 65 66 68 69 71 72 74 75 76 76 75 74 73 70 67 65 62 60 58 57 56 55 54 51 50 50 48 47 47 45 44 43
42 42 44 46 48 50 52 54 57 60 62 64 66 67 69 70 71 73 74 75 75 73 72 71 69 65 63 61 60 58 56 55 53 52 50 49 47 45 45 45 44 44 43 42
44 44 46 48 50 52 55 57 60 61 63 65 66 68 69 71 71 72 73 74 73 71 69 67 65 62 60 59 57 56 55 53 52 50 48 46 45 43 42 41 42 42 42 41
46 47 49 51 53 56 58 59 61 63 64 66 67 69 70 71 72 72 72 71 70 68 66 64 62 59 58 57 56 54 53 52 50 48 46 44 44 43 42 41 40 40 40 40
48 50 52 54 56 58 59 61 62 64 65 66 68 69 70 71 70 69 69 68 67 65 63 61 59 57 57 55 54 52 51 50 47 45 44 43 42 42 41 41 40 39 38 38
51 53 54 56 57 59 61 62 63 64 66 67 68 68 69 69 68 67 66 66 64 62 60 58 56 55 54 53 52 50 49 47 45 44 42 42 41 41 41 40 40 39 37 36
53 54 56 57 58 60 61 62 64 66 66 67 67 68 67 67 66 64 63 62 61 59 57 56 54 53 52 52 50 48 46 44 43 42 41 40 40 40 40 39 39 38 36 35
55 56 57 58 59 60 61 62 64 65 66 67 67 67 66 65 64 62 61 59 56 55 54 54 52 51 50 49 48 46 44 42 41 40 39 39 38 38 38 38 37 35 33 32
56 56 57 58 60 61 62 63 64 64 65 65 66 65 64 63 62 60 58 56 54 52 50 50 49 48 47 47 45 44 42 41 39 39 38 37 37 36 36 35 34 32 30 29
55 56 57 58 60 61 62 63 64 64 64 64 64 63 62 60 59 57 55 52 52 50 48 47 46 46 45 44 43 41 40 39 38 37 36 35 35 34 33 32 31 30 28 28
54 56 57 59 60 60 61 63 64 64 63 63 63 62 60 57 56 54 52 49 48 47 46 45 45 44 43 42 40 39 38 37 36 35 34 33 33 32 31 30 29 28 27 27
56 57 58 59 60 60 61 61 63 63 62 61 61 60 58 55 53 51 49 47 45 44 43 43 43 42 41 40 38 37 36 35 34 33 32 32 31 29 28 28 27 27 26 26
56 58 59 59 60 61 60 61 62 62 61 60 59 57 55 53 50 48 45 43 42 42 41 41 40 40 39 38 36 35 34 33 31 31 30 29 28 27 26 26 26 26 25 25
57 58 59 60 61 61 60 60 61 60 60 58 56 55 52 49 46 44 42 40 40 39 39 39 39 38 37 36 35 33 32 30 29 29 28 27 26 26 26 25 25 25 24 24
58 59 59 60 61 61 61 60 59 57 56 54 52 50 48 46 43 40 38 38 38 38 38 38 37 36 36 34 33 31 30 29 27 26 26 25 25 25 24 24 24 23 23 22
58 59 60 60 61 61 60 58 56 54 51 49 47 45 43 41 39 37 36 36 36 37 36 36 35 34 33 32 30 29 28 26 25 24 24 24 24 23 23 23 22 22 21 21
58 59 59 59 58 58 57 54 52 49 47 45 43 40 39 37 36 36 35 35 35 35 35 34 33 32 31 29 28 27 26 24 23 23 23 23 22 22 22 21 20 20 19 19
Wind_Direction
272 275 277 278 280 280 282 283 284 287 286 286 287 292 294 296 297 298 298 299 301 302 303 304 304 304 303 303 303 303 302 302 302 301 300 299 297 296 295 293 291 288 286 284
272 274 275 276 277 277 278 280 284 286 287 288 291 293 294 296 297 298 299 301 302 303 303 303 304 304 304 304 304 304 304 303 303 302 301 300 298 297 295 293 290 288 286 284
272 272 273 274 275 275 276 278 281 285 287 289 292 293 295 297 298 300 301 302 302 303 303 304 305 305 305 305 305 305 305 304 304 303 302 300 299 297 294 292 290 288 287 285
272 271 271 275 275 275 275 277 281 285 288 291 293 294 296 298 299 300 301 302 303 304 305 306 306 306 306 306 306 306 306 305 305 304 302 300 299 297 295 293 292 291 289 288
272 272 272 274 275 275 277 280 283 287 289 292 293 295 297 299 301 302 303 304 305 305 306 306 307 307 307 307 307 307 307 306 306 304 303 301 299 298 296 295 294 292 291 289
272 273 274 273 273 276 279 282 284 288 290 292 294 296 298 299 301 302 303 304 305 306 307 307 308 308 308 308 308 308 308 307 306 305 304 302 301 299 298 297 296 294 292 290
271 273 274 275 277 280 283 286 288 290 292 294 296 297 299 300 302 303 305 306 306 307 308 308 308 309 309 309 309 309 309 308 307 306 305 304 303 301 300 298 297 295 293 292
269 272 275 277 280 283 285 288 290 292 294 295 297 299 301 303 304 305 305 306 307 307 308 309 309 309 309 309 309 309 309 309 307 306 305 304 304 303 301 300 299 297 295 293
269 273 276 279 282 286 288 290 292 294 296 298 300 302 303 304 304 305 306 306 307 308 309 309 310 310 310 310 310 310 310 309 308 307 306 305 305 304 302 301 300 298 296 295
270 273 276 280 284 288 290 292 294 296 298 300 301 302 303 304 304 305 306 307 308 308 309 310 310 310 310 311 311 311 310 309 308 308 307 306 305 305 304 303 302 300 298 296
270 275 278 282 286 288 291 293 296 298 299 300 301 302 303 304 305 306 307 307 308 309 310 310 310 311 311 311 311 311 311 310 309 309 308 307 306 306 305 305 304 302 300 298
273 277 281 284 287 290 292 294 296 297 298 299 300 301 303 304 305 306 307 307 308 309 310 310 311 311 311 311 311 311 311 311 310 310 309 308 308 307 307 307 306 304 302 300
277 280 282 285 287 290 292 294 295 296 297 299 300 301 303 304 305 306 307 308 309 310 310 310 311 312 312 311 312 312 312 312 311 310 310 309 309 309 308 307 306 305 304 302
279 282 284 287 289 291 293 295 296 297 298 300 301 302 303 304 306 307 308 308 309 310 310 311 312 312 312 312 312 312 313 313 312 311 310 310 310 310 310 309 308 306 304 302
282 284 287 289 291 293 294 295 296 298 299 300 301 302 304 305 306 307 307 308 309 309 310 310 311 311 311 312 312 313 313 313 312 312 311 311 311 311 310 310 310 308 306 303
285 287 288 290 292 293 295 296 296 298 299 300 301 302 303 305 306 307 307 308 308 309 309 309 310 311 312 312 312 313 313 313 312 312 312 312 312 311 311 312 311 310 308 305
286 288 290 291 292 293 295 296 297 298 299 300 301 302 303 304 305 306 307 307 308 308 309 309 310 311 312 312 312 313 313 312 312 312 312 313 313 313 313 314 313 312 310 308
287 289 290 291 292 293 294 296 297 298 299 300 301 302 303 305 305 306 306 306 307 307 307 308 309 310 311 311 312 312 313 312 312 312 313 313 314 314 315 316 315 314 312 311
288 289 290 291 292 293 294 296 297 298 299 300 301 302 303 304 305 305 306 306 306 306 306 307 308 309 311 311 312 313 313 313 313 313 314 314 315 316 316 317 317 317 317 317
287 288 289 290 292 294 295 296 297 298 299 300 301 302 303 304 304 304 305 306 305 305 307 307 308 309 310 311 312 312 312 312 313 314 314 315 316 317 317 318 319 320 320 320
287 288 289 291 293 294 296 297 298 299 300 301 301 302 303 303 303 304 304 304 304 304 306 307 308 310 310 311 312 312 312 312 313 314 316 317 317 318 318 319 321 322 322 322
288 289 291 292 293 294 296 297 297 299 300 301 301 302 302 303 303 303 303 303 303 304 305 307 308 309 310 311 312 312 312 313 314 315 317 318 319 320 320 321 322 323 324 324
289 291 292 293 294 295 296 297 298 299 300 301 301 301 302 302 302 302 301 301 302 304 305 307 308 309 310 311 312 312 312 313 314 316 318 320 321 322 322 323 323 325 325 326
290 291 292 294 295 296 297 298 298 300 300 301 301 301 301 301 301 301 301 301 302 304 306 307 308 309 310 311 312 312 312 313 314 316 318 320 322 323 324 324 325 326 328 329
291 292 293 294 295 296 297 298 298 299 299 300 300 300 299 299 299 298 298 299 301 304 306 307 308 309 310 311 311 311 312 312 314 315 318 320 322 324 325 327 328 329 331 333
291 292 293 294 295 296 297 298 298 299 298 299 299 298 297 297 296 296 297 299 301 304 306 307 308 309 309 310 311 311 311 312 313 314 317 320 322 325 327 328 330 331 334 337
291 292 293 294 294 295 296 297 298 298 298 298 298 296 295 294 293 294 296 298 300 303 305 306 307 307 308 308 310 311 311 311 312 314 317 320 322 325 327 329 330 332 335 338
Height
5758 5757 5754 5754 5753 5750 5747 5745 5744 5745 5742 5741 5737 5734 5731 5727 5723 5718 5713 5708 5703 5697 5692 5686 5679 5673 5666 5659 5651 5643 5635 5626 5617 5608 5599 5590 5581 5572 5564 5556 5548 5542 5535 5529
5749 5748 5745 5745 5745 5742 5740 5737 5735 5734 5733 5731 5728 5725 5721 5717 5712 5707 5702 5696 5691 5685 5679 5672 5665 5658 5650 5642 5633 5624 5615 5606 5596 5587 5577 5567 5558 5549 5541 5533 5525 5518 5512 5507
5739 5739 5737 5737 5736 5734 5732 5729 5728 5726 5725 5722 5719 5714 5710 5705 5700 5695 5690 5684 5677 5671 5664 5657 5649 5641 5633 5624 5615 5605 5594 5584 5574 5564 5555 5545 5535 5526 5518 5510 5504 5497 5491 5485
5729 5730 5729 5731 5727 5724 5722 5721 5719 5717 5714 5711 5708 5703 5698 5693 5688 5683 5676 5670 5663 5655 5648 5640 5631 5623 5614 5605 5594 5584 5573 5563 5552 5542 5532 5523 5514 5505 5496 5489 5483 5477 5471 5466
5718 5718 5719 5720 5717 5714 5713 5712 5710 5707 5704 5700 5696 5691 5687 5681 5675 5668 5662 5655 5647 5639 5631 5623 5614 5605 5595 5585 5574 5563 5553 5542 5531 5520 5511 5502 5494 5485 5477 5470 5464 5458 5452 5447
5708 5707 5708 5711 5708 5705 5704 5702 5700 5696 5693 5689 5684 5680 5676 5669 5662 5655 5648 5640 5632 5623 5614 5604 5595 5585 5575 5565 5554 5543 5533 5522 5511 5501 5491 5483 5475 5467 5459 5452 5446 5440 5435 5429
5698 5696 5697 5698 5696 5695 5694 5692 5688 5684 5680 5676 5671 5666 5660 5653 5646 5639 5631 5623 5614 5605 5595 5585 5575 5565 5556 5545 5534 5524 5513 5503 5493 5483 5473 5465 5457 5450 5442 5435 5429 5424 5418 5413
5688 5686 5688 5686 5685 5684 5682 5679 5675 5671 5667 5662 5657 5651 5644 5637 5630 5622 5614 5606 5597 5588 5579 5567 5556 5546 5537 5526 5516 5506 5496 5486 5477 5467 5458 5449 5441 5434 5426 5419 5413 5407 5402 5398
5680 5679 5675 5674 5672 5670 5668 5665 5661 5657 5652 5647 5641 5635 5628 5621 5614 5606 5597 5589 5579 5570 5561 5550 5538 5526 5516 5507 5497 5488 5479 5470 5461 5452 5443 5434 5426 5418 5412 5404 5398 5392 5387 5383
5668 5667 5664 5662 5660 5658 5655 5651 5646 5642 5637 5631 5625 5619 5612 5605 5597 5589 5580 5571 5562 5553 5543 5534 5522 5510 5498 5489 5480 5472 5464 5455 5446 5437 5429 5421 5412 5405 5397 5390 5384 5378 5373 5368
5656 5655 5653 5651 5648 5645 5641 5637 5632 5627 5621 5616 5610 5603 5596 5589 5581 5572 5563 5554 5544 5535 5525 5516 5506 5495 5484 5474 5465 5457 5449 5441 5432 5423 5415 5408 5400 5392 5385 5378 5370 5364 5360 5355
5646 5645 5642 5640 5636 5632 5628 5624 5619 5614 5608 5601 5594 5588 5580 5573 5564 5555 5546 5537 5527 5518 5508 5498 5489 5480 5470 5460 5451 5442 5435 5427 5419 5410 5403 5395 5388 5382 5374 5366 5360 5353 5347 5342
5633 5632 5629 5626 5623 5619 5615 5610 5605 5599 5593 5586 5579 5571 5564 5556 5548 5538 5528 5519 5510 5501 5491 5482 5474 5465 5456 5447 5438 5430 5421 5413 5406 5398 5390 5383 5376 5370 5364 5358 5350 5343 5337 5331
5620 5618 5615 5612 5608 5604 5599 5594 5588 5582 5575 5569 5562 5554 5546 5538 5530 5520 5511 5502 5493 5485 5476 5467 5459 5451 5442 5434 5426 5418 5409 5401 5393 5386 5379 5372 5365 5359 5353 5347 5341 5335 5328 5321
5606 5604 5601 5597 5593 5588 5583 5577 5572 5565 5559 5552 5544 5536 5529 5521 5513 5505 5495 5486 5478 5470 5461 5453 5446 5438 5430 5421 5414 5406 5398 5390 5383 5376 5369 5362 5355 5349 5342 5336 5330 5324 5318 5312
5591 5588 5585 5581 5577 5572 5566 5561 5555 5549 5542 5535 5528 5520 5512 5504 5496 5489 5480 5471 5463 5456 5448 5440 5433 5425 5417 5409 5402 5395 5387 5379 5372 5365 5359 5352 5345 5339 5333 5326 5320 5314 5308 5302
5576 5573 5569 5565 5561 5555 5550 5544 5537 5531 5524 5517 5510 5503 5495 5488 5481 5473 5466 5457 5449 5441 5433 5426 5420 5413 5405 5398 5390 5384 5377 5370 5363 5356 5349 5343 5336 5330 5323 5317 5311 5304 5298 5292
5560 5557 5553 5549 5544 5539 5533 5527 5520 5514 5507 5500 5493 5486 5479 5471 5464 5458 5451 5444 5437 5430 5421 5414 5408 5401 5394 5387 5380 5373 5366 5360 5353 5347 5340 5334 5328 5321 5315 5308 5302 5295 5290 5284
5544 5541 5536 5532 5526 5521 5516 5510 5504 5497 5490 5483 5476 5470 5464 5456 5448 5442 5436 5429 5422 5416 5411 5403 5396 5390 5383 5376 5370 5363 5356 5350 5344 5338 5332 5326 5319 5313 5307 5300 5294 5288 5282 5277
5528 5524 5520 5515 5510 5505 5499 5493 5487 5481 5474 5466 5460 5454 5448 5442 5434 5427 5422 5416 5408 5402 5397 5391 5385 5379 5373 5367 5360 5354 5348 5342 5336 5330 5324 5318 5312 5306 5300 5294 5288 5282 5277 5271
5512 5508 5503 5499 5494 5489 5482 5475 5469 5463 5458 5451 5443 5437 5432 5427 5420 5413 5407 5403 5397 5390 5385 5380 5374 5368 5362 5357 5351 5345 5339 5333 5327 5322 5316 5310 5304 5299 5293 5287 5282 5277 5271 5266
5495 5491 5486 5481 5476 5472 5467 5459 5452 5446 5441 5435 5428 5421 5416 5411 5406 5400 5394 5388 5384 5379 5374 5369 5363 5358 5352 5347 5342 5336 5330 5325 5319 5314 5309 5303 5297 5292 5287 5282 5277 5271 5266 5261
5478 5474 5469 5464 5459 5454 5450 5443 5436 5430 5424 5418 5412 5406 5400 5396 5390 5386 5382 5377 5372 5368 5363 5358 5353 5348 5343 5338 5333 5327 5322 5317 5312 5307 5302 5297 5291 5286 5281 5276 5271 5266 5261 5256
5462 5457 5452 5447 5441 5436 5432 5427 5420 5414 5408 5402 5396 5390 5385 5381 5377 5373 5368 5365 5361 5357 5353 5348 5343 5338 5334 5329 5324 5319 5315 5310 5305 5301 5296 5291 5286 5281 5276 5271 5266 5261 5257 5252
5445 5440 5435 5430 5424 5419 5414 5409 5405 5399 5393 5387 5382 5376 5371 5367 5364 5361 5358 5354 5351 5347 5343 5339 5334 5329 5325 5320 5316 5312 5307 5303 5299 5294 5290 5286 5281 5276 5271 5267 5262 5257 5252 5248
5428 5423 5418 5413 5407 5402 5397 5392 5387 5383 5377 5373 5369 5364 5359 5356 5352 5349 5347 5344 5340 5337 5333 5329 5325 5321 5317 5313 5308 5304 5300 5296 5292 5289 5285 5280 5276 5272 5267 5263 5258 5254 5249 5245
5412 5407 5402 5397 5392 5385 5380 5375 5371 5367 5363 5359 5355 5352 5348 5345 5342 5339 5337 5334 5331 5328 5324 5320 5316 5313 5309 5305 5301 5298 5294 5290 5287 5283 5280 5276 5272 5267 5263 5259 5255 5251 5247 5243